Weather History for Benson, MN

Change the Weather History Date:

Friday, May 2, 2014

  Actual Average Record
Temperature  
Mean Temperature 48 °F -  
Max Temperature 62 °F 65 °F 93 °F (1959)
Min Temperature 33 °F 38 °F 23 °F (1961)
Degree Days  
Heating Degree Days 18    
Moisture  
Dew Point 36 °F    
Average Humidity 70    
Maximum Humidity 100    
Minimum Humidity 34    
Precipitation  
Precipitation 0.00 in - - ()
Sea Level Pressure  
Sea Level Pressure 29.71 in    
Wind  
Wind Speed 11 mph (NW)    
Max Wind Speed 32 mph    
Max Gust Speed 43 mph    
Visibility 10 miles    
Events Rain    
Averages and records for this station are not official NWS values.
T = Trace of Precipitation, MM = Missing Value Source: NWS Daily Summary

Daily Weather History Graph

Daily Weather History Graph

Search for Another Location

Airport:

Trip Planner

Search our weather history database for the weather conditions in past years. The results will help you decide how hot, cold, wet, or windy it might be!

Date:

Astronomy

May. 02, 2014 Rise Set
Actual Time 6:09 AM CDT 8:30 PM CDT
Civil Twilight 5:36 AM CDT 9:03 PM CDT
Nautical Twilight 4:56 AM CDT 9:44 PM CDT
Astronomical Twilight 4:10 AM CDT 10:30 PM CDT
Moon 8:44 AM CDT (5/2) 11:56 PM CDT (5/2)
Length of Visible Light 15h 26m
Length of Day
14h 20m
Waxing Crescent, 12% of the Moon is Illuminated
May 2
Waxing Crescent
May 6
First Quarter
May 14
Full
May 21
Last Quarter
May 28
New

Hourly Weather History & Observations

Time (CDT) Temp. Windchill Dew Point Humidity Pressure Visibility Wind Dir Wind Speed Gust Speed Precip Events Conditions
12:12 AM 33.8 °F 29.6 °F 33.8 °F 100% 29.85 in 10.0 mi West 4.6 mph - N/A   Clear
12:33 AM 33.8 °F 30.8 °F 32.0 °F 93% 29.85 in 10.0 mi West 3.5 mph - N/A   Clear
12:52 AM 33.8 °F 28.6 °F 33.8 °F 100% 29.84 in 10.0 mi West 5.8 mph - N/A   Clear
1:12 AM 35.6 °F 28.6 °F 33.8 °F 93% 29.83 in 10.0 mi West 9.2 mph - N/A   Clear
1:33 AM 35.6 °F 29.9 °F 33.8 °F 93% 29.82 in 10.0 mi West 6.9 mph - N/A   Clear
1:52 AM 35.6 °F 30.7 °F 33.8 °F 93% 29.81 in 10.0 mi West 5.8 mph - N/A   Clear
2:13 AM 33.8 °F 29.6 °F 33.8 °F 100% 29.81 in 10.0 mi SW 4.6 mph - N/A   Clear
2:32 AM 35.6 °F 30.7 °F 33.8 °F 93% 29.80 in 10.0 mi WSW 5.8 mph - N/A   Clear
2:52 AM 35.6 °F 29.9 °F 33.8 °F 93% 29.79 in 10.0 mi WSW 6.9 mph - N/A   Scattered Clouds
3:13 AM 35.6 °F 31.7 °F 33.8 °F 93% 29.79 in 10.0 mi WSW 4.6 mph - N/A   Mostly Cloudy
3:32 AM 37.4 °F 32.8 °F 35.6 °F 93% 29.79 in 10.0 mi WSW 5.8 mph - N/A   Overcast
3:52 AM 37.4 °F 32.1 °F 33.8 °F 87% 29.78 in 10.0 mi WSW 6.9 mph - N/A   Overcast
4:13 AM 37.4 °F 32.1 °F 33.8 °F 87% 29.77 in 10.0 mi WSW 6.9 mph - N/A   Mostly Cloudy
4:32 AM 37.4 °F 31.4 °F 33.8 °F 87% 29.76 in 10.0 mi WSW 8.1 mph - N/A   Mostly Cloudy
4:53 AM 37.4 °F 31.4 °F 33.8 °F 87% 29.74 in 10.0 mi SW 8.1 mph - N/A   Scattered Clouds
5:13 AM 37.4 °F 32.8 °F 33.8 °F 87% 29.74 in 10.0 mi SW 5.8 mph - N/A   Mostly Cloudy
5:32 AM 37.4 °F 31.4 °F 33.8 °F 87% 29.72 in 10.0 mi SW 8.1 mph - N/A   Mostly Cloudy
5:53 AM 37.4 °F 32.1 °F 35.6 °F 93% 29.71 in 10.0 mi SW 6.9 mph - N/A   Mostly Cloudy
6:13 AM 37.4 °F 31.4 °F 35.6 °F 93% 29.70 in 10.0 mi SW 8.1 mph - N/A   Mostly Cloudy
6:32 AM 39.2 °F 34.2 °F 35.6 °F 87% 29.70 in 10.0 mi SW 6.9 mph - N/A   Overcast
6:53 AM 39.2 °F 33.6 °F 35.6 °F 87% 29.68 in 10.0 mi SSW 8.1 mph - N/A   Overcast
7:12 AM 39.2 °F 34.2 °F 35.6 °F 87% 29.68 in 10.0 mi SW 6.9 mph - N/A   Overcast
7:33 AM 39.2 °F 33.6 °F 35.6 °F 87% 29.66 in 10.0 mi South 8.1 mph - N/A   Overcast
7:53 AM 39.2 °F 35.0 °F 35.6 °F 87% 29.66 in 10.0 mi South 5.8 mph - N/A   Overcast
8:12 AM 39.2 °F 37.0 °F 35.6 °F 87% 29.65 in 10.0 mi South 3.5 mph - N/A Rain Light Rain
8:33 AM 44.6 °F 40.2 °F 37.4 °F 76% 29.64 in 10.0 mi SW 8.1 mph - N/A   Scattered Clouds
8:52 AM 46.4 °F 41.9 °F 37.4 °F 71% 29.63 in 10.0 mi WSW 9.2 mph - N/A   Scattered Clouds
9:12 AM 51.8 °F - 37.4 °F 58% 29.62 in 10.0 mi West 12.7 mph - N/A   Scattered Clouds
9:33 AM 53.6 °F - 39.2 °F 58% 29.62 in 10.0 mi NW 15.0 mph - N/A   Clear
9:52 AM 53.6 °F - 42.8 °F 67% 29.62 in 10.0 mi NNW 20.7 mph 27.6 mph N/A   Mostly Cloudy
10:13 AM 51.8 °F - 42.8 °F 71% 29.63 in 10.0 mi NNW 21.9 mph 27.6 mph N/A   Overcast
10:32 AM 51.8 °F - 42.8 °F 71% 29.63 in 10.0 mi North 25.3 mph 32.2 mph N/A   Overcast
10:52 AM 50.0 °F - 41.0 °F 71% 29.64 in 10.0 mi North 23.0 mph 32.2 mph N/A   Overcast
11:13 AM 50.0 °F - 41.0 °F 71% 29.65 in 10.0 mi North 24.2 mph 35.7 mph N/A   Overcast
11:32 AM 50.0 °F - 41.0 °F 71% 29.65 in 10.0 mi NNW 26.5 mph 32.2 mph N/A   Overcast
11:52 AM 51.8 °F - 42.8 °F 71% 29.65 in 10.0 mi North 25.3 mph 34.5 mph N/A   Overcast
12:13 PM 48.2 °F - 41.0 °F 76% 29.66 in 10.0 mi North 26.5 mph 33.4 mph N/A   Overcast
12:32 PM 51.8 °F - 41.0 °F 67% 29.67 in 10.0 mi North 25.3 mph 33.4 mph N/A   Overcast
1:13 PM 53.6 °F - 41.0 °F 62% 29.67 in 10.0 mi North 32.2 mph 38.0 mph N/A   Overcast
1:32 PM 57.2 °F - 41.0 °F 55% 29.66 in 10.0 mi North 28.8 mph 36.8 mph N/A   Mostly Cloudy
1:53 PM 57.2 °F - 39.2 °F 51% 29.66 in 10.0 mi North 27.6 mph 41.4 mph N/A   Scattered Clouds
2:12 PM 59.0 °F - 39.2 °F 48% 29.67 in 10.0 mi North 25.3 mph 36.8 mph N/A   Scattered Clouds
2:32 PM 60.8 °F - 39.2 °F 45% 29.67 in 10.0 mi North 27.6 mph 35.7 mph N/A   Scattered Clouds
2:53 PM 60.8 °F - 37.4 °F 42% 29.67 in 10.0 mi North 32.2 mph 40.3 mph N/A   Scattered Clouds
3:12 PM 60.8 °F - 35.6 °F 39% 29.67 in 10.0 mi NNE 26.5 mph 42.6 mph N/A   Scattered Clouds
3:33 PM 60.8 °F - 37.4 °F 42% 29.68 in 10.0 mi North 24.2 mph 36.8 mph N/A   Scattered Clouds
3:53 PM 60.8 °F - 37.4 °F 42% 29.68 in 10.0 mi North 23.0 mph 38.0 mph N/A   Mostly Cloudy
4:12 PM 62.6 °F - 33.8 °F 34% 29.69 in 10.0 mi North 27.6 mph 35.7 mph N/A   Mostly Cloudy
4:33 PM 62.6 °F - 35.6 °F 37% 29.69 in 10.0 mi North 23.0 mph 34.5 mph N/A   Scattered Clouds
4:53 PM 62.6 °F - 35.6 °F 37% 29.69 in 10.0 mi North 21.9 mph 33.4 mph N/A   Scattered Clouds
5:12 PM 62.6 °F - 33.8 °F 34% 29.70 in 10.0 mi North 24.2 mph 35.7 mph N/A   Scattered Clouds
5:33 PM 60.8 °F - 33.8 °F 36% 29.70 in 10.0 mi North 25.3 mph 34.5 mph N/A   Scattered Clouds
5:53 PM 60.8 °F - 35.6 °F 39% 29.70 in 10.0 mi North 21.9 mph 29.9 mph N/A   Clear
6:12 PM 60.8 °F - 32.0 °F 34% 29.71 in 10.0 mi North 21.9 mph 35.7 mph N/A   Clear
6:33 PM 60.8 °F - 33.8 °F 36% 29.71 in 10.0 mi North 24.2 mph 29.9 mph N/A   Clear
6:52 PM 60.8 °F - 33.8 °F 36% 29.71 in 10.0 mi North 21.9 mph 28.8 mph N/A   Clear
7:12 PM 59.0 °F - 35.6 °F 42% 29.71 in 10.0 mi North 15.0 mph 26.5 mph N/A   Clear
7:33 PM 57.2 °F - 35.6 °F 44% 29.71 in 10.0 mi North 13.8 mph - N/A   Clear
7:52 PM 55.4 °F - 35.6 °F 47% 29.72 in 10.0 mi North 10.4 mph - N/A   Clear
8:13 PM 53.6 °F - 35.6 °F 51% 29.72 in 10.0 mi North 9.2 mph - N/A   Clear
8:33 PM 50.0 °F - 35.6 °F 58% 29.72 in 10.0 mi North 8.1 mph - N/A   Clear
8:52 PM 46.4 °F 42.9 °F 35.6 °F 66% 29.73 in 10.0 mi NNW 6.9 mph - N/A   Clear
9:13 PM 46.4 °F 42.9 °F 35.6 °F 66% 29.74 in 10.0 mi North 6.9 mph - N/A   Clear
9:33 PM 44.6 °F 42.2 °F 35.6 °F 71% 29.74 in 10.0 mi NNW 4.6 mph - N/A   Clear
9:52 PM 42.8 °F 39.3 °F 37.4 °F 81% 29.75 in 10.0 mi NW 5.8 mph - N/A   Clear
10:13 PM 42.8 °F 40.1 °F 37.4 °F 81% 29.75 in 10.0 mi North 4.6 mph - N/A   Clear
10:32 PM 42.8 °F 39.3 °F 35.6 °F 76% 29.75 in 10.0 mi NNW 5.8 mph - N/A   Clear
10:52 PM 39.2 °F 34.2 °F 35.6 °F 87% 29.76 in 10.0 mi NNW 6.9 mph - N/A   Clear
11:13 PM 39.2 °F 34.2 °F 35.6 °F 87% 29.76 in 10.0 mi NNW 6.9 mph - N/A   Clear
11:32 PM 39.2 °F 35.9 °F 35.6 °F 87% 29.77 in 10.0 mi NNW 4.6 mph - N/A   Clear
11:52 PM 37.4 °F 34.9 °F 33.8 °F 87% 29.77 in 10.0 mi NW 3.5 mph - N/A   Clear